Starlink 2314

operational
NORAD ID: 47788 Int'l Des: 2021-018 Owner: SPXS Country: US Constellation: starlink
LEOCIRCULARSTARLINK_TYPE

Starlink 2314について

説明を読み込み中...

リアルタイム位置

3D地球を読み込み中...

次回通過

高度履歴

Altitude vs Time

uPlot chart will show altitude changes over time

軌道要素

1 47788U 21018B 25303.14160579 -.00000602 00000-0 -21494-4 0 9996
2 47788 53.0503 92.6722 0001377 93.1082 267.0064 15.06399154257283
Epoch: Oct 30, 2025 • Age: 10 hours

現在のステータス

高度 547.1 km
速度 7.59 km/s
衛星直下点 17.14°N, 13.5°E
打ち上げ日 Mar 11, 2021
運用期間 4.6 years
タイプ internet

技術仕様

分類 Payload
質量 260.00 kg
乾燥質量 248.00 kg
総質量 260.00 kg
長さ 0.20 m
直径 2.80 m
スパン 9.00 m
形状 Box + pan
製造者 SPXS
バスタイプ Starlink
フェーズステータス In Orbit
所有者/国 SPXS/US

大規模コンステレーション

Loading constellations...